This demonstration page uses our WeatherBlox Daily Observations layout. Learn more.

Left ArrowRight Arrow

Hourly Observations for April 16, 2022

Temp ( °F °C ) Dew Point ( °F °C ) Humidity (%) Winds ( mph kmh ) Pressure ( in mb ) Visibility ( mi km ) Precip ( " mm )
12:56 am 00:56 Mostly Cloudy 38 3.2 17 -8.5 42 42 NW 7 11 30.25 1025 10 16 0.00 0.00
1:56 am 01:56 Mostly Cloudy 39 4.1 13 -10.8 33 33 N 10 17 30.25 1024 10 16 0.00 0.00
2:56 am 02:56 Mostly Cloudy 37 2.9 14 -10 38 38 N 13 20 30.24 1024 10 16 0.00 0.00
3:56 am 03:56 Partly Cloudy 35 1.5 15 -9.7 44 44 N 16 26 30.26 1025 10 16 0.00 0.00
4:56 am 04:56 undefined 33 0.6 15 -9.2 48 48 N 10 17 30.29 1026 10 16 0.00 0.00
5:56 am 05:56 Cloudy 31 -0.8 16 -9 54 54 N 7 11 30.32 1027 10 16 0.00 0.00
6:56 am 06:56 Mostly Cloudy 29 -1.7 15 -9.3 57 57 NNW 3 6 30.36 1028 10 16 0.00 0.00
7:56 am 07:56 Partly Cloudy 30 -1.3 14 -9.9 52 52 NNW 10 17 30.37 1028 10 16 0.00 0.00
8:56 am 08:56 Sunny 32 -0.2 14 -9.9 48 48 N 15 24 30.37 1028 10 16 0.00 0.00
9:56 am 09:56 Sunny 34 1.1 14 -10.1 43 43 NNW 10 17 30.37 1028 10 16 0.00 0.00
10:56 am 10:56 Sunny 38 3.1 14 -9.9 38 38 NNW 14 22 30.38 1029 10 16 0.00 0.00
11:56 am 11:56 Sunny 40 4.6 15 -9.6 35 35 N 9 15 30.39 1029 9 14 0.00 0.00
12:56 pm 12:56 Sunny 44 6.7 15 -9.7 30 30 NNW 9 15 30.37 1029 10 16 0.00 0.00
1:47 pm 13:47 undefined 46 8 14 -10 27 27 NNW 13 20 30.35 1028 10 16 0.00 0.00
1:56 pm 13:56 undefined 46 7.8 13 -10.5 26 26 NNW 13 20 30.35 1028 10 16 0.00 0.00
2:56 pm 14:56 Mostly Sunny 49 9.4 14 -10.2 24 24 NNW 8 13 30.32 1027 10 16 0.00 0.00
3:56 pm 15:56 Sunny 51 10.4 13 -10.4 22 22 NNE 10 17 30.30 1026 10 16 0.00 0.00
4:56 pm 16:56 Mostly Cloudy 51 10.7 14 -10.2 22 22 NNW 6 9 30.27 1025 10 16 0.00 0.00
5:56 pm 17:56 Partly Cloudy 51 10.5 12 -10.9 21 21 N 3 6 30.27 1025 10 16 0.00 0.00
6:56 pm 18:56 Mostly Cloudy 49 9.5 12 -11.2 22 22 ENE 8 13 30.26 1025 10 16 0.00 0.00
7:56 pm 19:56 Mostly Cloudy 47 8.1 12 -11.3 24 24 ENE 5 7 30.25 1024 10 16 0.00 0.00
8:56 pm 20:56 Mostly Cloudy 45 7 12 -11.2 26 26 ENE 3 6 30.26 1025 10 16 0.00 0.00
9:56 pm 21:56 Mostly Cloudy 44 6.6 12 -11.1 27 27 NE 3 6 30.28 1025 10 16 0.00 0.00
10:56 pm 22:56 Mostly Cloudy 44 6.5 13 -10.3 29 29 ENE 5 7 30.27 1025 10 16 0.00 0.00
11:56 pm 23:56 Mostly Cloudy 42 5.8 15 -9.2 33 33 ENE 7 11 30.27 1025 10 16 0.00 0.00

Powered by AerisWeather